User: anonymous
Location: Owatonna
(44.0840°N, 93.2260°W)
Time: 09:46:17
(UTC-05:00)
Language:

ALOS - Orbit

View from above orbital plane
View from above orbital plane
View from above satellite
View from above satellite

Ground track
Ground track

The orbit data is extracted from the following two-line orbital elements,

1 28931U 06002A   14112.16491951  .00001234  00000-0  26023-3 0    61
2 28931 097.9887 172.1801 0001212 067.8819 010.8714 14.61080631439140
Epoch (UTC): 22 April 2014 03:57:29
Eccentricity: 0.0001212
inclination: 97.9887°
perigee height: 689 km
apogee height: 690 km
right ascension of ascending node: 172.1801°
argument of perigee: 67.8819°
revolutions per day: 14.61080631
mean anomaly at epoch: 10.8714°
orbit number at epoch: 43914

The dashed part of the orbit path shows where the satellite is in the earth's shadow,  

DLR